GW7170 Weather Reports


time (UTC)temp
F
wind
direction
speed
knots
gust
knots
rain 1hr
in
rain 24hr
in
rain mn
in
humidity
%
barometer
mb
20260502170117 64 300 3.5 5.2 0.00 0.00 0.00 27 1020.0
20260502164117 62 272 3.5 4.3 0.00 0.00 0.00 27 1020.0
20260502163117 64 297 2.6 3.5 0.00 0.00 0.00 27 1020.0
20260502162116 63 286 2.6 3.5 0.00 0.00 0.00 29 1020.0
20260502161116 63 284 4.3 7.0 0.00 0.00 0.00 29 1020.0
20260502160137 62 277 3.5 5.2 0.00 0.00 0.00 28 1020.0
20260502152117 62 281 4.3 6.1 0.00 0.00 0.00 29 1020.3
20260502151117 64 289 2.6 3.5 0.00 0.00 0.00 29 1020.0
20260502150116 62 276 2.6 3.5 0.00 0.00 0.00 30 1020.0
20260502140116 59 276 3.5 3.5 0.00 0.00 0.00 37 1021.0
20260502130115 50 277 7.8 7.8 0.00 0.00 0.00 55 1021.0
20260502123115 44 270 6.1 6.1 0.00 0.00 0.00 70 1021.0
20260502122136 40 225 1.7 1.7 0.00 0.00 0.00 76 1020.0
20260502121115 38 90 3.5 3.5 0.00 0.00 0.00 79 1020.0
20260502120115 36 180 1.7 1.7 0.00 0.00 0.00 82 1020.0
20260502115115 35 90 1.7 1.7 0.00 0.00 0.00 82 1020.0
20260502114115 34 0.0 0.0 0.00 0.00 0.00 83 1020.0
20260502113115 34 270 1.7 1.7 0.00 0.00 0.00 82 1020.0
20260502112116 33 0.0 0.0 0.00 0.00 0.00 82 1020.0
20260502111117 34 0.0 0.0 0.00 0.00 0.00 81 1020.0
20260502110137 34 0.0 0.0 0.00 0.00 0.00 81 1020.0
20260502105117 34 90 1.7 1.7 0.00 0.00 0.00 81 1020.0
20260502104116 35 154 2.6 2.6 0.00 0.00 0.00 79 1020.0
20260502103116 35 180 1.7 1.7 0.00 0.00 0.00 80 1020.0
20260502102117 35 180 1.7 1.7 0.00 0.00 0.00 79 1020.0
20260502101115 35 156 2.6 2.6 0.00 0.00 0.00 79 1020.0
20260502100116 35 180 1.7 1.7 0.00 0.00 0.00 78 1020.0
20260502091116 36 102 3.5 3.5 0.00 0.00 0.00 74 1020.0
20260502090117 36 103 3.5 3.5 0.00 0.00 0.00 74 1020.0
20260502071115 38 270 1.7 1.7 0.00 0.00 0.00 68 1020.0
20260502070116 38 270 1.7 1.7 0.00 0.00 0.00 68 1020.0
20260502065118 38 270 2.6 3.5 0.00 0.00 0.00 67 1020.0
20260502064115 39 270 4.3 4.3 0.00 0.00 0.00 67 1020.0
20260502063135 39 270 4.3 4.3 0.00 0.00 0.00 66 1020.0
20260502062115 40 270 4.3 5.2 0.00 0.00 0.00 66 1020.0
20260502061116 40 283 3.5 3.5 0.00 0.00 0.00 66 1020.0
20260502060117 40 270 3.5 3.5 0.00 0.00 0.00 66 1020.0
20260502055115 41 245 4.3 4.3 0.00 0.00 0.00 66 1020.0
20260502054115 41 272 4.3 5.2 0.00 0.00 0.00 65 1018.9
20260502053117 41 270 5.2 5.2 0.00 0.00 0.00 64 1018.9
20260502052115 42 270 4.3 4.3 0.00 0.00 0.00 63 1018.9
20260502051135 43 272 4.3 5.2 0.00 0.00 0.00 62 1018.9
20260502050115 43 272 5.2 5.2 0.00 0.00 0.00 62 1018.9
20260502045116 44 271 5.2 5.2 0.00 0.00 0.00 63 1018.9
20260502044156 44 272 5.2 5.2 0.00 0.00 0.00 62 1018.9
20260502043116 44 272 5.2 5.2 0.00 0.00 0.00 62 1018.9
20260502042117 44 272 5.2 6.1 0.00 0.00 0.00 61 1018.9
20260502041115 45 273 6.1 6.1 0.00 0.00 0.00 60 1018.9
20260502040122 45 274 5.2 5.2 0.00 0.00 0.00 60 1018.9
20260502035136 46 274 7.0 7.0 0.00 0.00 0.00 58 1018.9
20260502034116 47 275 7.0 7.0 0.00 0.00 0.00 57 1018.9
20260502033115 47 275 7.0 7.8 0.00 0.00 0.00 56 1018.9
20260502032116 48 275 7.0 7.0 0.00 0.00 0.00 56 1018.9
20260502031117 48 276 7.0 7.0 0.00 0.00 0.00 55 1018.9
20260502030115 48 274 7.0 7.0 0.00 0.00 0.00 54 1018.9
20260502025117 48 274 7.0 7.0 0.00 0.00 0.00 54 1018.9
20260502024115 49 276 7.0 7.8 0.00 0.00 0.00 53 1018.9
20260502023116 49 272 6.1 6.1 0.00 0.00 0.00 51 1017.9
20260502022115 49 272 5.2 6.1 0.00 0.00 0.00 51 1017.9
20260502021116 50 270 5.2 5.2 0.00 0.00 0.00 50 1017.9
20260502020115 50 270 5.2 5.2 0.00 0.00 0.00 49 1017.9
20260502015117 50 270 4.3 5.2 0.00 0.00 0.00 48 1017.9
20260502014116 50 262 5.2 5.2 0.00 0.00 0.00 48 1017.9
20260502013117 50 252 3.5 3.5 0.00 0.00 0.00 47 1017.9
20260502012117 51 255 3.5 4.3 0.00 0.00 0.00 45 1017.9
20260502011115 51 241 3.5 3.5 0.00 0.00 0.00 43 1017.9
20260502010120 53 229 2.6 2.6 0.00 0.00 0.00 41 1017.9
20260502005116 54 225 2.6 2.6 0.00 0.00 0.00 41 1016.9
20260502004117 56 215 1.7 1.7 0.00 0.00 0.00 37 1016.9
20260502003115 58 228 1.7 1.7 0.00 0.00 0.00 34 1016.9
20260502002116 64 270 0.0 1.7 0.00 0.00 0.00 29 1016.9
20260502001117 66 152 0.0 1.7 0.00 0.00 0.00 29 1016.9
20260502000115 66 188 0.0 1.7 0.00 0.00 0.00 29 1016.9
20260501235136 68 128 0.9 2.6 0.00 0.00 0.00 28 1016.9
20260501234115 59 202 0.9 2.6 0.00 0.00 0.00 35 1016.9
20260501233121 61 198 0.9 1.7 0.00 0.00 0.00 33 1016.9
20260501232115 58 209 0.9 1.7 0.00 0.00 0.00 36 1016.9
20260501231137 59 244 0.9 1.7 0.00 0.00 0.00 34 1016.9
20260501230235 60 204 0.9 1.7 0.00 0.00 0.00 34 1016.9
20260501225116 61 191 0.9 1.7 0.00 0.00 0.00 33 1016.9
20260501224117 59 99 0.9 2.6 0.00 0.00 0.00 34 1016.9
20260501223115 59 70 1.7 2.6 0.00 0.00 0.00 34 1016.9
20260501222116 60 0.0 0.0 0.00 0.00 0.00 33 1016.9
20260501221137 62 241 0.9 1.7 0.00 0.00 0.00 32 1016.9
20260501220117 59 120 0.9 1.7 0.00 0.00 0.00 34 1016.9
20260501215137 58 201 0.9 1.7 0.00 0.00 0.00 34 1016.9
20260501214117 60 117 0.9 1.7 0.00 0.00 0.00 33 1016.9
20260501213115 62 272 0.9 1.7 0.00 0.00 0.00 32 1016.9
20260501212116 64 360 0.9 1.7 0.00 0.00 0.00 29 1016.9
20260501211116 68 105 0.0 1.7 0.00 0.00 0.00 28 1016.9
20260501210201 63 92 0.9 1.7 0.00 0.00 0.00 31 1016.9
20260501205126 62 61 0.9 2.6 0.00 0.00 0.00 31 1016.9
20260501204136 62 67 2.6 7.8 0.00 0.00 0.00 32 1016.9
20260501203119 65 51 0.9 3.5 0.00 0.00 0.00 28 1016.9
20260501202116 67 319 0.0 0.9 0.00 0.00 0.00 29 1016.9
20260501201116 65 320 0.9 2.6 0.00 0.00 0.00 30 1016.9
20260501200136 66 127 1.7 2.6 0.00 0.00 0.00 31 1016.9
20260501195117 64 219 0.9 2.6 0.00 0.00 0.00 32 1016.9
20260501194121 64 54 1.7 5.2 0.00 0.00 0.00 30 1016.9
20260501193156 64 70 0.9 3.5 0.00 0.00 0.00 31 1016.9
20260501192116 63 35 0.9 3.5 0.00 0.00 0.00 30 1016.9
20260501191116 66 76 4.3 6.1 0.00 0.00 0.00 31 1016.9
20260501190117 62 245 0.9 1.7 0.00 0.00 0.00 35 1016.9
20260501185116 61 270 1.7 3.5 0.00 0.00 0.00 35 1016.9
20260501184117 61 279 0.9 2.6 0.00 0.00 0.00 34 1016.9
20260501183116 61 249 0.0 0.9 0.00 0.00 0.00 36 1016.9
20260501182117 61 264 1.7 3.5 0.00 0.00 0.00 36 1016.9
20260501181115 61 272 1.7 2.6 0.00 0.00 0.00 34 1016.9
20260501180116 64 108 0.9 2.6 0.00 0.00 0.00 35 1016.9
20260501175117 60 129 0.9 1.7 0.00 0.00 0.00 36 1016.9
20260501174116 60 192 0.9 1.7 0.00 0.00 0.00 39 1016.9
20260501173115 59 263 0.9 2.6 0.00 0.00 0.00 38 1016.9
20260501172116 61 90 0.9 1.7 0.00 0.00 0.00 37 1016.9